Location: Highridge
(54.0333°N, 114.1333°W)
Time: 06:51:42
(UTC+00:00)

SO-50 - Pass Details

Date: 14 December 2023
Orbit: 608 x 660 km, 64.6° (Epoch: 02 March)

Event Time Altitude Azimuth Distance (km) Brightness Sun altitude
Exits shadow 14:44:15 - 319° (NW) 2,091 ? -8.6°
Reaches altitude 10° 14:44:25 10° 320° (NW) 2,033 ? -8.6°
Maximum altitude 14:48:40 36° 27° (NNE) 1,001 ? -8.0°
Drops below altitude 10° 14:52:52 10° 95° (E) 1,994 ? -7.5°
Sets 14:55:16 0° 104° (ESE) 2,890 ? -7.2°
